Date String (YYYY-MM-DD hh:mm:ss) UTC,Instrument flags,absolute air pressure of the measurement (hPa),sample flow rate (lpm),inlet stack bypass flow (lpm),air temperature of the measurement (°C),ambient temperature measured by the external sensor (°C),aerosol sample conditioner tube jacket temperature (°C),OPC LED temperature (°C),internal box temperature (°C),relative humidity of the measurement (%),span deviation,mass concentration of particles derived from Lorenz-Mie calculation of OPC scattering (μg/m³),mass concentration of particles derived from Lorenz-Mie calculation of OPC scattering (μg/m³),mass concentration of particles derived from Lorenz-Mie calculation of OPC scattering (μg/m³)
DateTimeUTC,F1_M11,P_M11,Q1_M11,Q2_M11,T1_M11,T2_M11,T3_M11,T4_M11,T5_M11,U1_M11,ZSPAN_M11,X2_M11,X0_M11,X1_M11
2024-05-28 07:00:00,SystemResetWarning,0835.5,5.00,000.00,031.2,030.3,000.0,039.6,032.8,013.8,0000.0,0003.64,0015.82,0002.40
2024-05-28 07:01:00,SystemResetWarning,0835.6,5.00,000.00,031.2,030.3,000.0,039.6,032.8,013.8,0000.0,0003.64,0015.98,0002.39
2024-05-28 07:02:00,SystemResetWarning,0835.6,5.01,000.00,031.2,030.3,000.0,039.6,032.8,013.8,0000.0,0003.64,0015.13,0002.37
2024-05-28 07:03:00,SystemResetWarning,0835.5,5.01,000.00,031.2,030.3,000.0,039.6,032.8,013.9,0000.0,0003.58,0014.46,0002.35
2024-05-28 07:04:00,SystemResetWarning,0835.6,5.00,000.00,031.2,030.3,000.0,039.6,032.8,013.9,0000.0,0003.60,0014.39,0002.34
2024-05-28 07:05:00,SystemResetWarning,0835.6,5.00,000.00,031.2,030.3,000.0,039.6,032.8,013.8,0000.0,0003.66,0015.22,0002.36
2024-05-28 07:06:00,SystemResetWarning,0835.6,4.99,000.00,031.1,030.3,000.0,039.6,032.8,013.8,0000.0,0003.71,0015.30,0002.38
2024-05-28 07:07:00,SystemResetWarning,0835.6,4.99,000.00,031.1,030.3,000.0,039.5,032.8,013.8,0000.0,0003.69,0014.85,0002.40
2024-05-28 07:08:00,SystemResetWarning,0835.6,5.00,000.00,031.1,030.3,000.0,039.5,032.8,013.8,0000.0,0003.69,0013.78,0002.42
2024-05-28 07:09:00,SystemResetWarning,0835.6,5.01,000.00,031.1,030.3,000.0,039.5,032.8,013.8,0000.0,0003.70,0014.24,0002.41
2024-05-28 07:10:00,SystemResetWarning,0835.6,5.00,000.00,031.1,030.3,000.0,039.5,032.8,013.8,0000.0,0003.70,0013.38,0002.43
2024-05-28 07:11:00,SystemResetWarning,0835.6,5.01,000.00,031.1,030.2,000.0,039.5,032.7,013.8,0000.0,0003.69,0012.47,0002.44
2024-05-28 07:12:00,SystemResetWarning,0835.6,5.00,000.00,031.1,030.2,000.0,039.5,032.7,013.8,0000.0,0003.65,0011.78,0002.44
2024-05-28 07:13:00,SystemResetWarning,0835.6,5.00,000.00,031.1,030.2,000.0,039.5,032.7,013.8,0000.0,0003.59,0012.09,0002.43
2024-05-28 07:14:00,SystemResetWarning,0835.6,4.99,000.00,031.1,030.2,000.0,039.5,032.7,013.8,0000.0,0003.57,0012.31,0002.40
2024-05-28 07:15:00,SystemResetWarning,0835.6,5.00,000.00,031.1,030.2,000.0,039.5,032.7,013.8,0000.0,0003.53,0012.52,0002.39
2024-05-28 07:16:00,SystemResetWarning,0835.6,4.99,000.00,031.1,030.2,000.0,039.5,032.7,013.8,0000.0,0003.43,0011.97,0002.35
2024-05-28 07:17:00,SystemResetWarning,0835.6,5.00,000.00,031.1,030.1,000.0,039.5,032.7,013.9,0000.0,0003.30,0010.41,0002.29
2024-05-28 07:18:00,SystemResetWarning,0835.6,5.00,000.00,031.0,030.1,000.0,039.5,032.7,013.9,0000.0,0003.25,0010.06,0002.25
2024-05-28 07:19:00,SystemResetWarning,0835.7,5.00,000.00,031.0,030.1,000.0,039.5,032.6,013.9,0000.0,0003.21,0009.84,0002.20
2024-05-28 07:20:00,SystemResetWarning,0835.6,5.00,000.00,031.0,030.1,000.0,039.5,032.6,013.9,0000.0,0003.16,0009.40,0002.17
2024-05-28 07:21:00,SystemResetWarning,0835.6,5.01,000.00,031.0,030.1,000.0,039.4,032.6,013.9,0000.0,0003.16,0009.51,0002.13
2024-05-28 07:22:00,SystemResetWarning,0835.6,5.00,000.00,031.0,030.1,000.0,039.4,032.6,013.9,0000.0,0003.13,0009.56,0002.10
2024-05-28 07:23:00,SystemResetWarning,0835.6,4.99,000.00,031.0,030.1,000.0,039.4,032.6,014.0,0000.0,0003.13,0009.48,0002.09
2024-05-28 07:24:00,SystemResetWarning,0835.6,4.99,000.00,031.0,030.1,000.0,039.4,032.6,014.0,0000.0,0003.13,0008.81,0002.08
2024-05-28 07:25:00,SystemResetWarning,0835.7,5.00,000.00,031.0,030.1,000.0,039.4,032.7,014.1,0000.0,0003.09,0008.35,0002.07
2024-05-28 07:26:00,SystemResetWarning,0835.6,5.01,000.00,031.0,030.1,000.0,039.4,032.7,014.0,0000.0,0003.04,0009.40,0002.02
2024-05-28 07:27:00,SystemResetWarning,0835.6,5.00,000.00,031.0,030.1,000.0,039.4,032.7,014.0,0000.0,0003.00,0010.04,0001.99
2024-05-28 07:28:00,SystemResetWarning,0835.6,4.99,000.00,031.0,030.1,000.0,039.4,032.6,014.1,0000.0,0002.99,0010.11,0001.98
2024-05-28 07:29:00,SystemResetWarning,0835.6,5.00,000.00,031.0,030.1,000.0,039.4,032.6,014.1,0000.0,0003.00,0010.45,0001.97
2024-05-28 07:30:00,SystemResetWarning,0835.6,5.01,000.00,031.0,030.1,000.0,039.4,032.6,014.1,0000.0,0002.94,0011.44,0001.97
2024-05-28 07:31:00,SystemResetWarning,0835.6,5.00,000.00,031.0,030.1,000.0,039.4,032.6,014.1,0000.0,0002.99,0011.72,0001.97
2024-05-28 07:32:00,SystemResetWarning,0835.7,5.00,000.00,031.0,030.1,000.0,039.4,032.6,014.1,0000.0,0002.89,0012.26,0001.95
2024-05-28 07:33:00,SystemResetWarning,0835.6,5.00,000.00,031.0,030.1,000.0,039.4,032.6,014.1,0000.0,0002.85,0013.39,0001.92
2024-05-28 07:34:00,SystemResetWarning,0835.7,5.00,000.00,031.0,030.1,000.0,039.4,032.6,014.1,0000.0,0002.87,0013.48,0001.91
2024-05-28 07:35:00,SystemResetWarning,0835.7,5.00,000.00,031.0,030.1,000.0,039.4,032.6,014.1,0000.0,0002.91,0014.00,0001.90
2024-05-28 07:36:00,SystemResetWarning,0835.7,5.01,000.00,031.0,030.1,000.0,039.4,032.6,014.1,0000.0,0002.97,0014.62,0001.90
2024-05-28 07:37:00,SystemResetWarning,0835.8,5.01,000.00,031.0,030.1,000.0,039.4,032.6,014.1,0000.0,0003.04,0013.17,0001.91
2024-05-28 07:38:00,SystemResetWarning,0835.8,5.01,000.00,031.0,030.1,000.0,039.4,032.6,014.1,0000.0,0003.04,0012.13,0001.93
2024-05-28 07:39:00,SystemResetWarning,0835.8,4.99,000.00,031.0,030.1,000.0,039.4,032.6,014.2,0000.0,0003.08,0012.66,0001.93
2024-05-28 07:40:00,SystemResetWarning,0835.8,4.99,000.00,031.0,030.1,000.0,039.4,032.6,014.2,0000.0,0003.05,0012.56,0001.92
2024-05-28 07:41:00,SystemResetWarning,0835.8,5.00,000.00,031.0,030.1,000.0,039.4,032.6,014.2,0000.0,0003.10,0011.89,0001.92
2024-05-28 07:42:00,SystemResetWarning,0835.8,5.02,000.00,031.0,030.1,000.0,039.4,032.6,014.2,0000.0,0003.04,0012.12,0001.90
2024-05-28 07:43:00,SystemResetWarning,0835.8,5.00,000.00,031.0,030.1,000.0,039.4,032.6,014.2,0000.0,0003.03,0011.15,0001.90
2024-05-28 07:44:00,SystemResetWarning,0835.8,4.99,000.00,031.0,030.1,000.0,039.4,032.6,014.2,0000.0,0002.99,0009.65,0001.90
2024-05-28 07:45:00,SystemResetWarning,0835.8,4.99,000.00,031.0,030.1,000.0,039.4,032.6,014.2,0000.0,0002.88,0009.34,0001.88
2024-05-28 07:46:00,SystemResetWarning,0835.8,4.99,000.00,031.0,030.1,000.0,039.4,032.6,014.2,0000.0,0002.81,0009.00,0001.88
2024-05-28 07:47:00,SystemResetWarning,0835.8,5.00,000.00,031.0,030.1,000.0,039.4,032.6,014.2,0000.0,0002.73,0008.08,0001.87
2024-05-28 07:48:00,SystemResetWarning,0835.8,5.01,000.00,030.9,030.1,000.0,039.4,032.6,014.2,0000.0,0002.66,0007.95,0001.87
2024-05-28 07:49:00,SystemResetWarning,0835.8,5.01,000.00,030.9,030.1,000.0,039.4,032.6,014.2,0000.0,0002.65,0007.99,0001.86
2024-05-28 07:50:00,SystemResetWarning,0835.7,5.00,000.00,030.9,030.1,000.0,039.4,032.6,014.3,0000.0,0002.66,0008.19,0001.85
2024-05-28 07:51:00,SystemResetWarning,0835.8,5.00,000.00,030.9,030.1,000.0,039.4,032.6,014.2,0000.0,0002.65,0007.94,0001.83
2024-05-28 07:52:00,SystemResetWarning,0835.8,4.99,000.00,030.9,030.1,000.0,039.4,032.6,014.3,0000.0,0002.69,0007.45,0001.83
2024-05-28 07:53:00,SystemResetWarning,0835.8,4.99,000.00,030.9,030.1,000.0,039.4,032.6,014.3,0000.0,0002.70,0006.49,0001.83
2024-05-28 07:54:00,SystemResetWarning,0835.8,5.00,000.00,030.9,030.1,000.0,039.4,032.6,014.3,0000.0,0002.79,0006.98,0001.84
2024-05-28 07:55:00,SystemResetWarning,0835.8,5.01,000.00,030.9,030.1,000.0,039.4,032.6,014.3,0000.0,0002.80,0007.40,0001.84
2024-05-28 07:56:00,SystemResetWarning,0835.8,5.01,000.00,030.9,030.1,000.0,039.4,032.6,014.3,0000.0,0002.79,0008.05,0001.84
2024-05-28 07:57:00,SystemResetWarning,0835.8,5.01,000.00,030.9,030.1,000.0,039.4,032.6,014.3,0000.0,0002.79,0007.85,0001.83
2024-05-28 07:58:00,SystemResetWarning,0835.8,5.00,000.00,030.9,030.1,000.0,039.4,032.6,014.3,0000.0,0002.79,0007.94,0001.81
2024-05-28 07:59:00,SystemResetWarning,0835.8,5.00,000.00,030.9,030.1,000.0,039.4,032.6,014.3,0000.0,0002.76,0008.49,0001.79
